FW5990 Weather Reports


Display with metric or nautical units.
time (UTC)temp
F
wind
direction
speed
MPH
gust
MPH
rain 1hr
in
rain 24hr
in
rain mn
in
humidity
%
barometer
mb
20260505083058 59 141 4.0 10.0 0.00 0.00 0.00 67 1010.5
20260505082551 59 153 3.0 10.0 0.00 0.00 0.00 67 1010.4
20260505082052 59 167 2.0 8.0 0.00 0.00 0.00 68 1010.4
20260505081555 59 176 3.0 8.0 0.00 0.00 0.00 67 1010.5
20260505081055 60 135 3.0 10.0 0.00 0.00 0.00 66 1010.4
20260505080551 60 143 3.0 9.0 0.00 0.00 0.00 66 1010.4
20260505080053 60 175 2.0 6.0 0.00 0.00 0.00 65 1010.4
20260505075550 60 167 1.0 5.0 0.00 0.00 0.00 65 1010.3
20260505075050 60 146 2.0 7.0 0.00 0.00 0.00 64 1010.3
20260505074549 60 165 3.0 9.0 0.00 0.00 0.00 65 1010.4
20260505073551 60 151 3.0 7.0 0.00 0.00 0.00 65 1010.3
20260505073054 60 93 3.0 7.0 0.00 0.00 0.00 65 1010.1
20260505072549 60 105 2.0 6.0 0.00 0.00 0.00 65 1010.1
20260505072048 60 65 3.0 8.0 0.00 0.00 0.00 65 1010.1
20260505071558 59 121 3.0 8.0 0.00 0.00 0.00 66 1010.1
20260505071049 58 146 2.0 6.0 0.00 0.00 0.00 69 1010.1
20260505070552 57 114 0.0 2.0 0.00 0.00 0.00 70 1010.1
20260505070048 58 139 0.0 2.0 0.00 0.00 0.00 69 1010.0
20260505065549 58 131 0.0 3.0 0.00 0.00 0.00 68 1010.0
20260505065046 59 126 1.0 3.0 0.00 0.00 0.00 67 1010.1
20260505064549 59 121 1.0 3.0 0.00 0.00 0.00 66 1010.1
20260505064047 60 120 0.0 4.0 0.00 0.00 0.00 65 1010.1
20260505063545 61 142 1.0 4.0 0.00 0.00 0.00 64 1010.1
20260505063045 61 134 1.0 6.0 0.00 0.00 0.00 63 1010.1
20260505062545 61 126 0.0 6.0 0.00 0.00 0.00 64 1010.2
20260505062047 62 128 2.0 7.0 0.00 0.00 0.00 62 1010.1
20260505061548 62 159 3.0 7.0 0.00 0.00 0.00 62 1010.1
20260505061044 61 122 1.0 5.0 0.00 0.00 0.00 62 1010.1
20260505060544 62 158 1.0 6.0 0.00 0.00 0.00 62 1010.1
20260505060050 62 143 2.0 9.0 0.00 0.00 0.00 62 1010.1
20260505055546 62 146 2.0 9.0 0.00 0.00 0.00 62 1010.2
20260505055042 61 193 1.0 6.0 0.00 0.00 0.00 64 1010.2
20260505054542 60 144 2.0 7.0 0.00 0.00 0.00 65 1010.2
20260505054042 59 155 3.0 7.0 0.00 0.00 0.00 68 1010.1
20260505053542 58 184 0.0 5.0 0.00 0.00 0.00 70 1010.1
20260505053041 58 153 0.0 1.0 0.00 0.00 0.00 72 1010.1
20260505052539 58 167 0.0 2.0 0.00 0.00 0.00 71 1010.1
20260505052038 59 165 0.0 3.0 0.00 0.00 0.00 69 1010.2
20260505051555 59 150 1.0 3.0 0.00 0.00 0.00 69 1010.2
20260505051040 60 169 0.0 3.0 0.00 0.00 0.00 68 1010.2
20260505050537 61 129 1.0 4.0 0.00 0.00 0.00 65 1010.2
20260505041529 61 121 0.0 4.0 0.00 0.00 0.00 65 1010.3
20260505041029 61 155 1.0 4.0 0.00 0.00 0.00 65 1010.3
20260505040529 61 161 0.0 4.0 0.00 0.00 0.00 65 1010.4
20260505040028 61 117 1.0 4.0 0.00 0.00 0.00 65 1010.5
20260505035529 61 103 0.0 2.0 0.00 0.00 0.00 65 1010.6
20260505035026 61 150 0.0 2.0 0.00 0.00 0.00 65 1010.5
20260505034526 61 146 1.0 2.0 0.00 0.00 0.00 64 1010.5
20260505034026 62 142 0.0 2.0 0.00 0.00 0.00 63 1010.5
20260505033526 62 145 0.0 3.0 0.00 0.00 0.00 62 1010.5
20260505033026 63 165 0.0 6.0 0.00 0.00 0.00 61 1010.5
20260505032526 63 159 2.0 6.0 0.00 0.00 0.00 60 1010.6
20260505032026 63 122 1.0 6.0 0.00 0.00 0.00 59 1010.7
20260505031526 64 158 2.0 6.0 0.00 0.00 0.00 58 1010.6
20260505031025 64 90 1.0 4.0 0.00 0.00 0.00 57 1010.6
20260505030525 65 159 0.0 6.0 0.00 0.00 0.00 56 1010.5
20260505030025 65 212 1.0 9.0 0.00 0.00 0.00 56 1010.6
20260505025525 65 159 4.0 9.0 0.00 0.00 0.00 56 1010.6
20260505025025 65 143 4.0 7.0 0.00 0.00 0.00 56 1010.7
20260505024524 65 173 1.0 6.0 0.00 0.00 0.00 57 1010.6
20260505024023 65 176 1.0 6.0 0.00 0.00 0.00 56 1010.5
20260505023523 65 212 2.0 10.0 0.00 0.00 0.00 56 1010.5
20260505023026 65 218 2.0 10.0 0.00 0.00 0.00 55 1010.7
20260505022523 65 193 2.0 7.0 0.00 0.00 0.00 55 1010.6
20260505022029 65 128 1.0 8.0 0.00 0.00 0.00 55 1010.6
20260505021528 66 126 3.0 8.0 0.00 0.00 0.00 54 1010.5
20260505021024 66 162 3.0 11.0 0.00 0.00 0.00 54 1010.5
20260505020523 66 145 4.0 11.0 0.00 0.00 0.00 54 1010.5
20260505020022 65 165 3.0 8.0 0.00 0.00 0.00 54 1010.6
20260505015522 66 172 0.0 8.0 0.00 0.00 0.00 53 1010.5
20260505015026 66 194 2.0 6.0 0.00 0.00 0.00 53 1010.5
20260505014521 66 209 2.0 9.0 0.00 0.00 0.00 53 1010.5
20260505014029 66 151 3.0 9.0 0.00 0.00 0.00 52 1010.4
20260505013522 66 250 2.0 6.0 0.00 0.00 0.00 52 1010.4
20260505013020 67 203 2.0 9.0 0.00 0.00 0.00 51 1010.4
20260505012520 67 101 3.0 7.0 0.00 0.00 0.00 51 1010.3
20260505012020 67 127 2.0 5.0 0.00 0.00 0.00 50 1010.1
20260505011524 67 200 2.0 4.0 0.00 0.00 0.00 49 1010.1
20260505011021 67 181 1.0 4.0 0.00 0.00 0.00 49 1010.0
20260505010520 68 186 2.0 6.0 0.00 0.00 0.00 49 1010.0
20260505010019 68 139 2.0 0.0 0.00 0.00 0.00 48 1009.8
20260505005520 68 106 1.0 7.0 0.00 0.00 0.00 48 1009.8
20260505005018 68 130 1.0 9.0 0.00 0.00 0.00 48 1009.9
20260505004523 69 179 3.0 9.0 0.00 0.00 0.00 47 1009.8
20260505004117 69 184 3.0 9.0 0.00 0.00 0.00 46 1009.7
20260505003517 70 175 1.0 14.0 0.00 0.00 0.00 46 1009.8
20260505003017 70 204 6.0 14.0 0.00 0.00 0.00 45 1009.8
20260505002517 70 144 2.0 9.0 0.00 0.00 0.00 45 1009.8
20260505002016 70 174 4.0 9.0 0.00 0.00 0.00 45 1009.7
20260505001517 70 158 4.0 13.0 0.00 0.00 0.00 45 1009.6
20260505001018 70 96 4.0 11.0 0.00 0.00 0.00 44 1009.6
20260505000515 70 213 6.0 11.0 0.00 0.00 0.00 44 1009.6
20260505000023 70 151 3.0 10.0 0.00 0.00 0.00 44 1009.7
20260504235515 70 172 2.0 10.0 0.00 0.00 0.00 44 1009.5
20260504235014 70 164 1.0 8.0 0.00 0.00 0.00 44 1009.5
20260504234513 71 140 3.0 9.0 0.00 0.00 0.00 43 1009.4
20260504234013 71 220 2.0 10.0 0.00 0.00 0.00 43 1009.5
20260504233513 71 153 1.0 11.0 0.00 0.00 0.00 43 1009.3
20260504233014 71 160 4.0 11.0 0.00 0.00 0.00 42 1009.4
20260504232513 71 63 3.0 12.0 0.00 0.00 0.00 42 1009.3
20260504232015 71 158 3.0 14.0 0.00 0.00 0.00 41 1009.2
20260504231513 71 86 5.0 14.0 0.00 0.00 0.00 41 1009.3
20260504231012 72 37 1.0 10.0 0.00 0.00 0.00 41 1009.2
20260504230512 72 147 1.0 9.0 0.00 0.00 0.00 40 1009.3
20260504230014 72 102 3.0 13.0 0.00 0.00 0.00 41 1009.2
20260504225511 72 92 3.0 13.0 0.00 0.00 0.00 40 1009.2
20260504225017 73 191 3.0 14.0 0.00 0.00 0.00 39 1009.1
20260504224510 73 86 5.0 14.0 0.00 0.00 0.00 38 1009.1
20260504224010 73 78 5.0 9.0 0.00 0.00 0.00 38 1009.1
20260504223511 74 178 2.0 12.0 0.00 0.00 0.00 38 1009.0
20260504223010 74 88 5.0 12.0 0.00 0.00 0.00 37 1009.0
20260504222509 75 200 4.0 11.0 0.00 0.00 0.00 37 1009.0
20260504222012 76 111 2.0 16.0 0.00 0.00 0.00 36 1008.9
20260504221508 76 79 4.0 16.0 0.00 0.00 0.00 35 1008.7
20260504221009 76 224 3.0 12.0 0.00 0.00 0.00 35 1008.8
20260504220511 76 142 2.0 10.0 0.00 0.00 0.00 35 1008.8
20260504220009 77 135 4.0 12.0 0.00 0.00 0.00 34 1008.8
20260504215508 77 118 1.0 10.0 0.00 0.00 0.00 33 1008.8
20260504215007 77 177 6.0 10.0 0.00 0.00 0.00 33 1008.8
20260504214517 76 97 4.0 12.0 0.00 0.00 0.00 35 1008.8
20260504214014 77 103 5.0 11.0 0.00 0.00 0.00 34 1008.7
20260504213506 76 87 6.0 11.0 0.00 0.00 0.00 35 1008.8
20260504213006 76 180 3.0 11.0 0.00 0.00 0.00 35 1008.7
20260504212506 76 129 4.0 11.0 0.00 0.00 0.00 33 1008.7
20260504212006 76 53 4.0 7.0 0.00 0.00 0.00 34 1008.6
20260504211507 75 254 2.0 8.0 0.00 0.00 0.00 36 1008.7
20260504211004 74 214 1.0 11.0 0.00 0.00 0.00 35 1008.8
20260504210504 74 122 4.0 12.0 0.00 0.00 0.00 35 1008.8
20260504210003 73 159 3.0 12.0 0.00 0.00 0.00 35 1008.9
20260504205503 74 1 3.0 10.0 0.00 0.00 0.00 35 1008.8
20260504205002 74 227 2.0 9.0 0.00 0.00 0.00 35 1008.9
20260504204503 74 168 2.0 8.0 0.00 0.00 0.00 35 1009.0
20260504204002 74 328 4.0 11.0 0.00 0.00 0.00 34 1008.9
20260504203505 74 131 4.0 11.0 0.00 0.00 0.00 34 1008.9
20260504203002 75 96 5.0 12.0 0.00 0.00 0.00 34 1009.0
20260504202501 75 25 4.0 12.0 0.00 0.00 0.00 33 1008.9
20260504202001 75 126 4.0 17.0 0.00 0.00 0.00 35 1009.0
20260504201630 75 83 4.0 17.0 0.00 0.00 0.00 33 1009.1
20260504201100 75 37 6.0 14.0 0.00 0.00 0.00 32 1009.1
20260504200559 75 193 4.0 12.0 0.00 0.00 0.00 34 1009.2
20260504200107 75 139 5.0 12.0 0.00 0.00 0.00 32 1009.3
20260504195558 75 90 4.0 15.0 0.00 0.00 0.00 33 1009.3
20260504195057 76 191 2.0 15.0 0.00 0.00 0.00 32 1009.4
20260504194604 76 99 4.0 13.0 0.00 0.00 0.00 32 1009.4
20260504194056 76 240 2.0 13.0 0.00 0.00 0.00 33 1009.5
20260504193556 77 175 5.0 13.0 0.00 0.00 0.00 32 1009.6
20260504193059 76 136 2.0 13.0 0.00 0.00 0.00 30 1009.7
20260504192553 76 157 3.0 11.0 0.00 0.00 0.00 32 1009.8
20260504192100 76 141 4.0 11.0 0.00 0.00 0.00 31 1010.0
20260504191600 76 140 3.0 9.0 0.00 0.00 0.00 31 1010.0
20260504191052 76 111 1.0 7.0 0.00 0.00 0.00 35 1010.1
20260504190550 75 120 1.0 19.0 0.00 0.00 0.00 32 1010.1
20260504190107 75 124 3.0 19.0 0.00 0.00 0.00 34 1010.2
20260504185551 75 134 3.0 13.0 0.00 0.00 0.00 34 1010.2
20260504185048 74 47 5.0 12.0 0.00 0.00 0.00 34 1010.3
20260504184603 74 46 4.0 13.0 0.00 0.00 0.00 34 1010.4
20260504184046 74 73 4.0 13.0 0.00 0.00 0.00 35 1010.6
20260504183546 74 217 3.0 11.0 0.00 0.00 0.00 35 1010.6
20260504183045 74 199 4.0 14.0 0.00 0.00 0.00 33 1010.7
20260504182543 73 26 1.0 14.0 0.00 0.00 0.00 37 1010.8
20260504182043 73 360 5.0 13.0 0.00 0.00 0.00 36 1010.9
20260504181547 74 351 3.0 12.0 0.00 0.00 0.00 34 1011.0
20260504181042 73 134 2.0 11.0 0.00 0.00 0.00 38 1011.1
20260504180541 73 216 6.0 12.0 0.00 0.00 0.00 34 1011.1
20260504180042 73 125 4.0 12.0 0.00 0.00 0.00 35 1011.1
20260504175538 73 147 3.0 10.0 0.00 0.00 0.00 35 1011.3
20260504175037 72 149 2.0 11.0 0.00 0.00 0.00 37 1011.4
20260504174539 72 162 5.0 11.0 0.00 0.00 0.00 35 1011.4
20260504174037 73 124 4.0 10.0 0.00 0.00 0.00 36 1011.5
20260504173541 72 127 4.0 10.0 0.00 0.00 0.00 34 1011.5
20260504173036 72 203 2.0 12.0 0.00 0.00 0.00 35 1011.7
20260504172534 72 207 3.0 11.0 0.00 0.00 0.00 36 1011.7
20260504172034 72 137 3.0 11.0 0.00 0.00 0.00 35 1011.9
20260504171534 72 86 3.0 10.0 0.00 0.00 0.00 36 1011.9
20260504171034 71 293 3.0 9.0 0.00 0.00 0.00 35 1011.9
20260504170533 71 92 4.0 9.0 0.00 0.00 0.00 36 1012.1
20260504151011 67 106 1.0 7.0 0.00 0.00 0.00 40 1013.6
20260504150511 66 49 2.0 10.0 0.00 0.00 0.00 39 1013.5
20260504141002 63 107 2.0 9.0 0.00 0.00 0.00 42 1013.8
20260504140501 63 181 3.0 9.0 0.00 0.00 0.00 40 1013.9
20260504140112 62 191 2.0 11.0 0.00 0.00 0.00 44 1013.9
20260504130548 59 65 5.0 9.0 0.00 0.00 0.00 42 1014.1
20260504110524 43 122 0.0 1.0 0.00 0.00 0.00 81 1014.8
20260504100521 42 122 0.0 1.0 0.00 0.00 0.00 81 1014.6